Location: Asheville, NC
(35.6000°N, 82.5500°W)
Time: 09:16:58
(UTC-04:00)

Vanguard 2 - Pass Details

Date: 08 December 2017
Orbit: 553 x 2939 km, 32.9° (Epoch: 26 April)

Event Time Altitude Azimuth Distance (km) Brightness Sun altitude
Rises 18:52:31 0° 258° (WSW) 3,098 12.3 -18.9°
Reaches altitude 10° 18:55:08 10° 254° (WSW) 2,001 10.9 -19.4°
Maximum altitude 18:59:22 57° 176° (S) 654 7.1 -20.2°
Enters shadow 19:00:12 46° 128° (SE) 743 7.2 -20.4°
Drops below altitude 10° 19:03:16 10° 96° (E) 1,837 - -21.0°
Sets 19:05:34 0° 92° (E) 2,812 - -21.5°
